Location: Northam
(31.6525°S, 116.6655°E)
Time: 22:59:48
(UTC+08:00)

Envisat - Pass Details

Date: 23 May 2021
Orbit: 764 x 766 km, 98.1° (Epoch: 14 June)

Event Time Altitude Azimuth Distance (km) Brightness Sun altitude
Rises 04:46:52 0° 19° (NNE) 3,216 6.6 -27.9°
Reaches altitude 10° 04:49:09 10° 20° (NNE) 2,298 5.8 -27.4°
Maximum altitude 04:54:12 73° 104° (ESE) 809 3.1 -26.3°
Enters shadow 04:56:20 36° 180° (S) 1,221 3.9 -25.9°
